Location: Cisewo
(53.3833°N, 14.9000°E)
Time: 13:56:50
(UTC+00:00)

Cosmos 1242 Rocket - Pass Details

Date: 18 April 2021
Orbit: 445 x 485 km, 81.2° (Epoch: 16 May)

Event Time Altitude Azimuth Distance (km) Brightness Sun altitude
Exits shadow 22:52:42 40° 27° (NNE) 727 3.8 -25.4°
Drops below altitude 10° 22:55:12 10° 17° (NNE) 1,678 6.2 -25.4°
Sets 22:57:18 0° 15° (NNE) 2,560 7.4 -25.4°
